This is the latest recevied weather packets stored in our database for station/object KY0TEQ-13. If no packets are shown the sender has not sent any weather packets the latest 10 day(s).
| Time | Temp. | Humidity | Pressure | Rain* | Wind** | Luminosity | Snow |
|---|---|---|---|---|---|---|---|
| 1777723287 | 0° C | 73% | 1308.9 hPa | 0 mm | - | 0 W/m² | - |
| 1777722984 | 0° C | 72% | 1308.9 hPa | 0 mm | - | 0 W/m² | - |
| 1777722680 | 0° C | 73% | 1309 hPa | 0 mm | - | 0 W/m² | - |
| 1777722376 | 0° C | 73% | 1308.8 hPa | 0 mm | - | 0 W/m² | - |
| 1777722074 | 0.56° C | 72% | 1308.9 hPa | 0 mm | - | 0 W/m² | - |
| 1777721771 | 0.56° C | 72% | 1308.8 hPa | 0 mm | - | 0 W/m² | - |
| 1777721470 | 0.56° C | 72% | 1308.8 hPa | 0 mm | - | 0 W/m² | - |
| 1777721167 | 0.56° C | 71% | 1308.8 hPa | 0 mm | - | 0 W/m² | - |
| 1777720864 | 1.11° C | 71% | 1308.9 hPa | 0 mm | - | 0 W/m² | - |
| 1777720561 | 0.56° C | 71% | 1308.8 hPa | 0 mm | - | 0 W/m² | - |
| 1777720259 | 0.56° C | 71% | 1308.8 hPa | 0 mm | - | 0 W/m² | - |
| 1777719956 | 0.56° C | 71% | 1308.6 hPa | 0 mm | - | 0 W/m² | - |
| 1777719654 | 0.56° C | 71% | 1308.9 hPa | 0 mm | - | 0 W/m² | - |
| 1777719351 | 1.11° C | 70% | 1308.6 hPa | 0 mm | - | 0 W/m² | - |
| 1777719048 | 1.11° C | 70% | 1308.6 hPa | 0 mm | - | 0 W/m² | - |
| 1777718745 | 1.11° C | 70% | 1308.5 hPa | 0 mm | - | 0 W/m² | - |
| 1777718443 | 1.11° C | 69% | 1308.8 hPa | 0 mm | - | 0 W/m² | - |
| 1777718140 | 1.11° C | 69% | 1308.8 hPa | 0 mm | - | 0 W/m² | - |
| 1777717838 | 1.67° C | 68% | 1308.6 hPa | 0 mm | - | 0 W/m² | - |
| 1777717534 | 1.67° C | 68% | 1308.9 hPa | 0 mm | - | 0 W/m² | - |
| 1777717232 | 1.67° C | 68% | 1308.6 hPa | 0 mm | - | 0 W/m² | - |
| 1777716929 | 1.67° C | 68% | 1308.8 hPa | 0 mm | - | 0 W/m² | - |
| 1777716628 | 1.67° C | 69% | 1308.6 hPa | 0 mm | - | 0 W/m² | - |
| 1777716326 | 1.11° C | 70% | 1308.8 hPa | 0 mm | - | 0 W/m² | - |
| 1777716023 | 1.11° C | 71% | 1308.8 hPa | 0 mm | - | 0 W/m² | - |
* Rain latest hour (hover to see other rain measurements)
** Current wind speed in m/s (hover to see current wind gust speed)